DW5963 Weather Reports


time (UTC)temp
F
wind
direction
speed
knots
gust
knots
rain 1hr
in
rain 24hr
in
rain mn
in
humidity
%
barometer
mb
20240418180047 30 360 17.4 0.0 0.00 0.00 0.00 78 1024.0
20240418175546 30 360 17.4 0.0 0.00 0.00 0.00 74 1024.0
20240418175046 32 360 17.4 0.0 0.00 0.00 0.00 71 1024.0
20240418174550 31 360 17.4 0.0 0.00 0.00 0.00 71 1024.0
20240418174046 30 360 17.4 0.0 0.00 0.00 0.00 70 1023.9
20240418173546 31 360 16.5 0.0 0.00 0.00 0.00 68 1023.9
20240418173045 31 360 16.5 0.0 0.00 0.00 0.00 70 1023.9
20240418172545 31 360 16.5 0.0 0.00 0.00 0.00 70 1024.0
20240418172044 32 360 14.8 0.0 0.00 0.00 0.00 73 1024.1
20240418171544 31 360 14.8 0.0 0.00 0.00 0.00 79 1024.1
20240418171044 30 360 15.6 0.0 0.00 0.00 0.00 71 1024.1
20240418170542 30 360 16.5 0.0 0.00 0.00 0.00 71 1024.1
20240418170042 31 360 18.2 0.0 0.00 0.00 0.00 68 1024.0
20240418165541 30 360 18.2 0.0 0.00 0.00 0.00 67 1024.0
20240418165041 31 360 17.4 0.0 0.00 0.00 0.00 67 1024.0
20240418164549 31 360 17.4 0.0 0.00 0.00 0.00 66 1023.9
20240418164041 31 360 15.6 0.0 0.00 0.00 0.00 72 1024.0
20240418163541 31 360 14.8 0.0 0.00 0.00 0.00 77 1023.9
20240418163040 29 360 15.6 0.0 0.00 0.00 0.00 78 1024.0
20240418162542 30 360 15.6 0.0 0.00 0.00 0.00 72 1023.9
20240418162039 31 360 15.6 0.0 0.00 0.00 0.00 70 1023.9
20240418161544 31 360 14.8 0.0 0.00 0.00 0.00 73 1023.9
20240418161038 30 360 16.5 0.0 0.00 0.00 0.00 70 1023.8
20240418160540 30 360 16.5 0.0 0.00 0.00 0.00 70 1023.9
20240418160040 30 360 16.5 0.0 0.00 0.00 0.00 69 1023.8
20240418155539 31 360 17.4 0.0 0.00 0.00 0.00 68 1023.8
20240418155038 30 360 17.4 0.0 0.00 0.00 0.00 68 1023.8
20240418154539 30 360 18.2 0.0 0.00 0.00 0.00 69 1023.7
20240418154038 30 360 19.1 0.0 0.00 0.00 0.00 68 1023.7
20240418153538 30 360 19.1 0.0 0.00 0.00 0.00 65 1023.7
20240418153038 30 360 19.1 0.0 0.00 0.00 0.00 66 1023.7
20240418152536 30 360 17.4 0.0 0.00 0.00 0.00 64 1023.7
20240418152036 29 360 15.6 0.0 0.00 0.00 0.00 68 1023.7
20240418151539 30 360 13.9 0.0 0.00 0.00 0.00 69 1023.6
20240418151034 30 360 14.8 0.0 0.00 0.00 0.00 69 1023.7
20240418150533 30 360 15.6 0.0 0.00 0.00 0.00 69 1023.7
20240418150037 29 360 15.6 0.0 0.00 0.00 0.00 69 1023.6
20240418145532 29 360 15.6 0.0 0.00 0.00 0.00 71 1023.6
20240418145032 28 360 14.8 0.0 0.00 0.00 0.00 71 1023.6
20240418144531 29 360 14.8 0.0 0.00 0.00 0.00 71 1023.6
20240418144032 29 360 15.6 0.0 0.00 0.00 0.00 71 1023.6
20240418143531 29 360 14.8 0.0 0.00 0.00 0.00 74 1023.7
20240418143032 29 360 13.9 0.0 0.00 0.00 0.00 75 1023.5
20240418142530 28 360 13.9 0.0 0.00 0.00 0.00 77 1023.6
20240418142029 28 360 13.0 0.0 0.00 0.00 0.00 78 1023.6
20240418141529 27 360 13.0 0.0 0.00 0.00 0.00 79 1023.6
20240418141032 27 360 14.8 0.0 0.00 0.00 0.00 80 1023.7
20240418140529 27 360 15.6 0.0 0.00 0.00 0.00 80 1023.7
20240418140026 26 360 15.6 0.0 0.00 0.00 0.00 80 1023.7
20240418135526 27 360 13.9 0.0 0.00 0.00 0.00 81 1023.7
20240418135025 27 360 12.2 0.0 0.00 0.00 0.00 80 1023.7
20240418134524 27 360 11.3 0.0 0.00 0.00 0.00 77 1023.5
20240418134024 27 360 10.4 0.0 0.00 0.00 0.00 77 1023.4
20240418133524 27 360 10.4 0.0 0.00 0.00 0.00 76 1023.4
20240418133024 27 360 11.3 0.0 0.00 0.00 0.00 76 1023.4
20240418132524 27 360 12.2 0.0 0.00 0.00 0.00 77 1023.4
20240418132025 27 360 12.2 0.0 0.00 0.00 0.00 78 1023.4
20240418131523 27 360 10.4 0.0 0.00 0.00 0.00 80 1023.4
20240418131023 27 360 10.4 0.0 0.00 0.00 0.00 79 1023.5
20240418130530 27 360 10.4 0.0 0.00 0.00 0.00 78 1023.5
20240418130026 27 360 12.2 0.0 0.00 0.00 0.00 77 1023.4
20240418125525 27 360 11.3 0.0 0.00 0.00 0.00 77 1023.3
20240418125025 27 360 10.4 0.0 0.00 0.00 0.00 77 1023.3
20240418124546 27 360 9.6 0.0 0.00 0.00 0.00 77 1023.3
20240418124024 27 360 8.7 0.0 0.00 0.00 0.00 76 1023.3
20240418123523 27 360 10.4 0.0 0.00 0.00 0.00 76 1023.3
20240418123023 27 360 11.3 0.0 0.00 0.00 0.00 74 1023.3
20240418122523 27 360 11.3 0.0 0.00 0.00 0.00 73 1023.2
20240418122028 27 360 10.4 0.0 0.00 0.00 0.00 73 1023.2
20240418121528 27 360 10.4 0.0 0.00 0.00 0.00 73 1023.1
20240418121021 27 360 12.2 0.0 0.00 0.00 0.00 73 1023.0
20240418120517 27 360 12.2 0.0 0.00 0.00 0.00 73 1023.0
20240418120017 27 360 13.0 0.0 0.00 0.00 0.00 72 1022.9
20240418115517 27 360 12.2 0.0 0.00 0.00 0.00 72 1022.9
20240418115016 27 360 12.2 0.0 0.00 0.00 0.00 72 1022.9
20240418114516 27 360 13.0 0.0 0.00 0.00 0.00 72 1023.0
20240418114015 27 360 11.3 0.0 0.00 0.00 0.00 72 1022.9
20240418113519 27 360 11.3 0.0 0.00 0.00 0.00 71 1022.9
20240418113015 27 360 12.2 0.0 0.00 0.00 0.00 71 1022.9
20240418112514 27 360 13.0 0.0 0.00 0.00 0.00 70 1022.8
20240418112013 27 360 14.8 0.0 0.00 0.00 0.00 69 1022.8
20240418111511 28 360 14.8 0.0 0.00 0.00 0.00 68 1022.9
20240418111011 28 360 13.9 0.0 0.00 0.00 0.00 71 1022.9
20240418110515 28 360 13.0 0.0 0.00 0.00 0.00 71 1022.9
20240418110013 28 360 14.8 0.0 0.00 0.00 0.00 72 1022.8
20240418105512 28 360 14.8 0.0 0.00 0.00 0.00 72 1022.7
20240418105012 28 360 14.8 0.0 0.00 0.00 0.00 72 1022.7
20240418104511 28 360 15.6 0.0 0.00 0.00 0.00 72 1022.7
20240418104012 28 360 13.9 0.0 0.00 0.00 0.00 75 1022.6
20240418103508 28 360 11.3 0.0 0.00 0.00 0.00 76 1022.6
20240418103009 28 360 11.3 0.0 0.00 0.00 0.00 76 1022.6
20240418102512 28 360 12.2 0.0 0.00 0.00 0.00 76 1022.6
20240418102008 28 360 12.2 0.0 0.00 0.00 0.00 75 1022.5
20240418101508 28 360 12.2 0.0 0.00 0.00 0.00 75 1022.6
20240418101007 28 360 13.9 0.0 0.00 0.00 0.00 73 1022.6
20240418100508 28 360 14.8 0.0 0.00 0.00 0.00 72 1022.7
20240418100007 28 360 14.8 0.0 0.00 0.00 0.00 72 1022.7
20240418095509 28 360 13.9 0.0 0.00 0.00 0.00 72 1022.6
20240418095008 28 360 13.9 0.0 0.00 0.00 0.00 73 1022.5
20240418094506 28 360 13.0 0.0 0.00 0.00 0.00 72 1022.6
20240418094004 27 360 13.0 0.0 0.00 0.00 0.00 71 1022.4
20240418093102 28 360 13.9 0.0 0.00 0.00 0.00 71 1022.4
20240418092559 28 360 13.0 0.0 0.00 0.00 0.00 71 1022.4
20240418092059 28 360 13.0 0.0 0.00 0.00 0.00 71 1022.3
20240418091558 28 360 13.9 0.0 0.00 0.00 0.00 71 1022.4
20240418091058 28 360 14.8 0.0 0.00 0.00 0.00 71 1022.2
20240418090556 28 360 15.6 0.0 0.00 0.00 0.00 71 1022.2
20240418090055 28 360 16.5 0.0 0.00 0.00 0.00 72 1022.1
20240418085554 29 360 14.8 0.0 0.00 0.00 0.00 72 1022.1
20240418085054 29 360 15.6 0.0 0.00 0.00 0.00 71 1022.0
20240418084554 29 360 15.6 0.0 0.00 0.00 0.00 70 1022.0
20240418084053 29 360 14.8 0.0 0.00 0.00 0.00 69 1022.0
20240418083105 30 360 13.9 0.0 0.00 0.00 0.00 70 1021.9
20240418082556 29 360 13.0 0.0 0.00 0.00 0.00 70 1022.0
20240418082053 29 360 13.0 0.0 0.00 0.00 0.00 71 1022.0
20240418081557 29 360 13.9 0.0 0.00 0.00 0.00 71 1021.9
20240418081052 29 360 13.9 0.0 0.00 0.00 0.00 71 1021.9
20240418080552 29 360 14.8 0.0 0.00 0.00 0.00 71 1022.0
20240418080051 29 360 15.6 0.0 0.00 0.00 0.00 71 1021.9
20240418075551 29 360 15.6 0.0 0.00 0.00 0.00 71 1021.8
20240418075050 29 360 15.6 0.0 0.00 0.00 0.00 71 1021.9
20240418074553 29 360 15.6 0.0 0.00 0.00 0.00 70 1021.9
20240418074047 30 360 14.8 0.0 0.00 0.00 0.00 71 1021.7
20240418073049 30 360 13.0 0.0 0.00 0.00 0.00 73 1021.8
20240418072545 29 360 12.2 0.0 0.00 0.00 0.00 74 1021.8
20240418072045 29 360 12.2 0.0 0.00 0.00 0.00 74 1021.7
20240418071547 29 360 12.2 0.0 0.00 0.00 0.00 73 1021.7
20240418071043 30 360 13.0 0.0 0.00 0.00 0.00 73 1021.6
20240418070543 30 360 13.0 0.0 0.00 0.00 0.00 74 1021.7
20240418070042 30 360 13.0 0.0 0.00 0.00 0.00 75 1021.8
20240418065542 30 360 12.2 0.0 0.00 0.00 0.00 74 1021.7
20240418065043 30 360 12.2 0.0 0.00 0.00 0.00 73 1021.8
20240418064552 30 360 14.8 0.0 0.00 0.00 0.00 72 1021.7
20240418064041 31 360 16.5 0.0 0.00 0.00 0.00 71 1021.8
20240418063042 31 360 15.6 0.0 0.00 0.00 0.00 70 1021.8
20240418062543 31 360 15.6 0.0 0.00 0.00 0.00 70 1021.7
20240418062042 32 360 16.5 0.0 0.00 0.00 0.00 71 1021.6
20240418061547 32 360 16.5 0.0 0.00 0.00 0.00 72 1021.4
20240418061038 31 360 14.8 0.0 0.00 0.00 0.00 72 1021.4
20240418060539 31 360 13.9 0.0 0.00 0.00 0.00 73 1021.4
20240418060037 31 360 13.9 0.0 0.00 0.00 0.00 72 1021.4
20240418055535 32 360 12.2 0.0 0.00 0.00 0.00 72 1021.4
20240418055035 32 360 11.3 0.0 0.00 0.00 0.00 73 1021.3
20240418054537 32 360 12.2 0.0 0.00 0.00 0.00 73 1021.3
20240418054034 32 360 13.0 0.0 0.00 0.00 0.00 73 1021.3
20240418053055 32 360 13.9 0.0 0.00 0.00 0.00 73 1021.2
20240418052530 33 360 13.0 0.0 0.00 0.00 0.00 71 1021.1
20240418052030 33 360 12.2 0.0 0.00 0.00 0.00 71 1021.1
20240418051530 33 360 12.2 0.0 0.00 0.00 0.00 71 1021.0
20240418051029 33 360 13.0 0.0 0.00 0.00 0.00 71 1020.9
20240418050529 33 360 12.2 0.0 0.00 0.00 0.00 72 1020.9
20240418050030 32 360 12.2 0.0 0.00 0.00 0.00 73 1020.9
20240418045528 32 360 13.0 0.0 0.00 0.00 0.00 72 1020.9
20240418045026 33 360 12.2 0.0 0.00 0.00 0.00 73 1020.9
20240418044528 33 360 12.2 0.0 0.00 0.00 0.00 73 1020.9
20240418044026 33 360 12.2 0.0 0.00 0.00 0.00 73 1020.8
20240418043025 33 360 12.2 0.0 0.00 0.00 0.00 74 1020.6
20240418042524 32 360 12.2 0.0 0.00 0.00 0.00 73 1020.5
20240418042023 32 360 11.3 0.0 0.00 0.00 0.00 73 1020.6
20240418041522 33 360 11.3 0.0 0.00 0.00 0.00 73 1020.6
20240418041021 33 360 10.4 0.0 0.00 0.00 0.00 73 1020.5
20240418040520 33 360 10.4 0.0 0.00 0.00 0.00 72 1020.5
20240418040024 33 360 11.3 0.0 0.00 0.00 0.00 72 1020.5
20240418035518 34 360 12.2 0.0 0.00 0.00 0.00 71 1020.4
20240418035017 34 360 12.2 0.0 0.00 0.00 0.00 70 1020.4
20240418034516 34 360 13.0 0.0 0.00 0.00 0.00 70 1020.4
20240418034015 34 360 13.0 0.0 0.00 0.00 0.00 69 1020.3
20240418033016 35 360 13.0 0.0 0.00 0.00 0.00 69 1020.4
20240418032520 35 360 13.0 0.0 0.00 0.00 0.00 69 1020.3
20240418032014 35 360 13.0 0.0 0.00 0.00 0.00 68 1020.3
20240418031519 35 360 15.6 0.0 0.00 0.00 0.00 67 1020.2
20240418031015 35 360 15.6 0.0 0.00 0.00 0.00 67 1020.1
20240418030511 35 360 14.8 0.0 0.00 0.00 0.00 66 1020.0
20240418030009 35 360 14.8 0.0 0.00 0.00 0.00 66 1019.8
20240418025510 36 360 13.9 0.0 0.00 0.00 0.00 66 1019.7
20240418025007 36 360 13.9 0.0 0.00 0.00 0.00 66 1019.7
20240418024506 36 360 13.9 0.0 0.00 0.00 0.00 67 1019.6
20240418024006 36 360 14.8 0.0 0.00 0.00 0.00 66 1019.6
20240418023019 36 360 13.9 0.0 0.00 0.00 0.00 67 1019.5
20240418022505 36 360 14.8 0.0 0.00 0.00 0.00 67 1019.2
20240418022004 36 360 15.6 0.0 0.00 0.00 0.00 67 1019.2
20240418021504 36 360 15.6 0.0 0.00 0.00 0.00 66 1019.0
20240418021003 36 360 14.8 0.0 0.00 0.00 0.00 66 1019.0
20240418020502 36 360 14.8 0.0 0.00 0.00 0.00 66 1018.8
20240418020001 36 360 16.5 0.0 0.00 0.00 0.00 66 1018.7
20240418015600 37 360 16.5 0.0 0.00 0.00 0.00 64 1018.6
20240418015058 37 360 15.6 0.0 0.00 0.00 0.00 64 1018.5
20240418014605 37 360 15.6 0.0 0.00 0.00 0.00 66 1018.3
20240418014056 37 360 14.8 0.0 0.00 0.00 0.00 67 1018.3
20240418013100 38 360 14.8 0.0 0.00 0.00 0.00 62 1018.0
20240418012554 38 360 14.8 0.0 0.00 0.00 0.00 63 1018.0
20240418012054 38 360 14.8 0.0 0.00 0.00 0.00 64 1017.9
20240418011553 38 360 13.9 0.0 0.00 0.00 0.00 65 1017.8
20240418011052 38 360 14.8 0.0 0.00 0.00 0.00 67 1017.7
20240418010552 38 360 16.5 0.0 0.00 0.00 0.00 67 1017.7
20240418010052 38 360 17.4 0.0 0.00 0.00 0.00 67 1017.6
20240418005551 38 360 18.2 0.0 0.00 0.00 0.00 64 1017.6
20240418005055 39 360 15.6 0.0 0.00 0.00 0.00 61 1017.4
20240418004554 39 360 13.9 0.0 0.00 0.00 0.00 61 1017.4
20240418004050 39 360 13.9 0.0 0.00 0.00 0.00 63 1017.3
20240418003057 39 360 16.5 0.0 0.00 0.00 0.00 63 1017.2
20240418002552 39 360 15.6 0.0 0.00 0.00 0.00 62 1017.2
20240418002052 39 360 13.0 0.0 0.00 0.00 0.00 64 1017.1
20240418001549 38 360 13.9 0.0 0.00 0.00 0.00 71 1017.1
20240418001049 37 360 14.8 0.0 0.00 0.00 0.00 72 1017.1
20240418000551 38 360 17.4 0.0 0.00 0.00 0.00 70 1017.2
20240418000047 39 360 18.2 0.0 0.00 0.00 0.00 66 1017.0
20240417235545 40 360 17.4 0.0 0.00 0.00 0.00 62 1016.8
20240417235046 40 360 16.5 0.0 0.00 0.00 0.00 62 1016.8
20240417234545 40 360 18.2 0.0 0.00 0.00 0.00 66 1016.6
20240417234045 39 360 17.4 0.0 0.00 0.00 0.00 63 1016.6
20240417233042 40 360 18.2 0.0 0.00 0.00 0.00 60 1016.6
20240417232542 40 360 20.0 0.0 0.00 0.00 0.00 58 1016.5
20240417232042 40 360 20.0 0.0 0.00 0.00 0.00 58 1016.4
20240417231546 41 360 19.1 0.0 0.00 0.00 0.00 57 1016.3
20240417231040 41 360 18.2 0.0 0.00 0.00 0.00 58 1016.1
20240417230539 41 360 17.4 0.0 0.00 0.00 0.00 57 1016.1
20240417230041 41 360 18.2 0.0 0.00 0.00 0.00 58 1015.8
20240417225542 41 360 19.1 0.0 0.00 0.00 0.00 57 1015.8
20240417225037 41 360 18.2 0.0 0.00 0.00 0.00 56 1015.7
20240417224550 41 360 16.5 0.0 0.00 0.00 0.00 58 1015.7
20240417224037 40 360 18.2 0.0 0.00 0.00 0.00 58 1015.6
20240417223043 40 360 17.4 0.0 0.00 0.00 0.00 56 1015.3
20240417222538 40 360 16.5 0.0 0.00 0.00 0.00 57 1015.3
20240417222037 40 360 17.4 0.0 0.00 0.00 0.00 56 1015.2
20240417221544 40 360 18.2 0.0 0.00 0.00 0.00 57 1015.1
20240417221036 40 360 17.4 0.0 0.00 0.00 0.00 55 1015.1
20240417220537 40 360 18.2 0.0 0.00 0.00 0.00 57 1015.2
20240417220036 40 360 19.1 0.0 0.00 0.00 0.00 57 1015.2
20240417215537 40 360 19.1 0.0 0.00 0.00 0.00 56 1015.1
20240417215035 40 360 19.1 0.0 0.00 0.00 0.00 58 1015.1
20240417214534 40 360 19.1 0.0 0.00 0.00 0.00 58 1015.1
20240417214036 40 360 19.1 0.0 0.00 0.00 0.00 57 1014.9
20240417213045 40 360 19.1 0.0 0.00 0.00 0.00 59 1014.8
20240417212536 40 360 19.1 0.0 0.00 0.00 0.00 58 1014.7
20240417212035 41 360 18.2 0.0 0.00 0.00 0.00 57 1014.8
20240417211537 41 360 20.0 0.0 0.00 0.00 0.00 58 1014.6
20240417211034 40 360 20.9 0.0 0.00 0.00 0.00 58 1014.6
20240417210533 41 360 20.0 0.0 0.00 0.00 0.00 57 1014.4
20240417210038 41 360 20.0 0.0 0.00 0.00 0.00 56 1014.3
20240417205533 41 360 21.7 0.0 0.00 0.00 0.00 55 1014.4
20240417205033 41 360 21.7 0.0 0.00 0.00 0.00 56 1014.3
20240417204541 42 360 20.9 0.0 0.00 0.00 0.00 55 1014.3
20240417204032 42 360 20.9 0.0 0.00 0.00 0.00 53 1014.2
20240417203029 43 360 19.1 0.0 0.00 0.00 0.00 53 1014.0
20240417202528 42 360 18.2 0.0 0.00 0.00 0.00 55 1014.1
20240417202028 41 360 18.2 0.0 0.00 0.00 0.00 57 1014.0
20240417201543 40 360 18.2 0.0 0.00 0.00 0.00 58 1014.1
20240417201026 40 360 19.1 0.0 0.00 0.00 0.00 58 1014.0
20240417200526 40 360 20.9 0.0 0.00 0.00 0.00 58 1013.9
20240417200032 41 360 19.1 0.0 0.00 0.00 0.00 56 1013.9
20240417195525 41 360 17.4 0.0 0.00 0.00 0.00 56 1013.7
20240417195024 41 360 17.4 0.0 0.00 0.00 0.00 58 1013.6
20240417194534 41 360 18.2 0.0 0.00 0.00 0.00 58 1013.7
20240417194023 41 360 18.2 0.0 0.00 0.00 0.00 58 1013.5
20240417193029 41 360 19.1 0.0 0.00 0.00 0.00 58 1013.4
20240417192523 41 360 18.2 0.0 0.00 0.00 0.00 61 1013.3
20240417192021 41 360 18.2 0.0 0.00 0.00 0.00 61 1013.4
20240417191522 41 360 19.1 0.0 0.00 0.00 0.00 63 1013.3
20240417191024 40 360 20.0 0.0 0.00 0.00 0.00 65 1013.3
20240417190521 41 360 21.7 0.0 0.00 0.00 0.00 64 1013.3
20240417190028 42 360 21.7 0.0 0.00 0.00 0.00 61 1013.1
20240417185520 41 360 20.9 0.0 0.00 0.00 0.00 61 1013.1
20240417185025 41 360 19.1 0.0 0.00 0.00 0.00 62 1013.1
20240417184520 42 360 20.0 0.0 0.00 0.00 0.00 60 1013.0
20240417184019 42 360 20.9 0.0 0.00 0.00 0.00 62 1013.0
20240417183019 42 360 18.2 0.0 0.00 0.00 0.00 61 1013.0
20240417182519 43 360 17.4 0.0 0.00 0.00 0.00 64 1012.9
20240417182017 41 360 18.2 0.0 0.00 0.00 0.00 65 1013.0
20240417181526 41 360 18.2 0.0 0.00 0.00 0.00 65 1013.0
20240417181017 40 360 16.5 0.0 0.00 0.00 0.00 65 1013.1
20240417180519 40 360 17.4 0.0 0.00 0.00 0.00 66 1013.1